DW7898 Weather Reports


time (UTC)temp
C
wind
direction
speed
KPH
gust
KPH
rain 1hr
cm
rain 24hr
cm
rain mn
cm
humidity
%
barometer
mb
20260503005356 17 40 1.6 3.2 0.00 0.00 0.00 76 1019.3
20260503004357 17 40 1.6 4.8 0.00 0.00 0.00 76 1019.4
20260503003339 17 40 0.0 3.2 0.00 0.00 0.00 76 1019.6
20260503002340 17 40 0.0 3.2 0.00 0.00 0.00 76 1019.8
20260503001338 17 40 1.6 3.2 0.00 0.00 0.00 76 1019.8
20260503000400 17 40 0.0 4.8 0.00 0.00 0.00 76 1019.9
20260502235339 17 40 1.6 6.4 0.00 0.00 0.00 76 1020.1
20260502234342 17 40 3.2 4.8 0.00 0.00 0.00 76 1020.1
20260502233348 17 39 1.6 3.2 0.00 0.00 0.00 76 1020.2
20260502232339 17 39 0.0 3.2 0.00 0.00 0.00 76 1020.3
20260502231338 17 39 0.0 4.8 0.00 0.00 0.00 76 1020.2
20260502230345 17 37 3.2 8.0 0.00 0.00 0.00 77 1020.3
20260502225346 17 13 3.2 8.0 0.00 0.00 0.00 76 1020.3
20260502224356 17 48 3.2 6.4 0.00 0.00 0.00 76 1020.3
20260502223338 17 51 3.2 6.4 0.00 0.00 0.00 76 1020.4
20260502222356 17 58 3.2 6.4 0.00 0.00 0.00 76 1020.3
20260502221339 17 45 4.8 6.4 0.00 0.00 0.00 76 1020.6
20260502220343 17 42 3.2 9.7 0.00 0.00 0.00 76 1020.7
20260502215359 17 16 6.4 9.7 0.00 0.00 0.00 76 1020.7
20260502214356 17 40 6.4 9.7 0.00 0.00 0.00 76 1020.8
20260502213358 17 39 3.2 9.7 0.00 0.00 0.00 76 1021.0
20260502212357 17 53 3.2 8.0 0.00 0.00 0.00 75 1020.9
20260502211337 17 50 1.6 6.4 0.00 0.00 0.00 75 1021.1
20260502210339 17 52 4.8 8.0 0.00 0.00 0.00 75 1021.1
20260502205357 17 48 3.2 6.4 0.00 0.00 0.00 75 1021.0
20260502204343 17 48 3.2 6.4 0.00 0.00 0.00 75 1021.1
20260502203349 17 47 3.2 6.4 0.00 0.00 0.00 74 1021.0
20260502202352 17 52 3.2 6.4 0.00 0.00 0.00 74 1021.1
20260502201354 17 50 3.2 8.0 0.00 0.00 0.00 74 1020.7
20260502200354 17 58 1.6 8.0 0.00 0.00 0.00 73 1020.7
20260502195356 17 42 4.8 8.0 0.00 0.00 0.00 73 1020.6
20260502194339 17 54 3.2 8.0 0.00 0.00 0.00 73 1020.6
20260502193347 17 42 3.2 8.0 0.00 0.00 0.00 72 1020.6
20260502192346 17 52 3.2 8.0 0.00 0.00 0.00 72 1020.6
20260502191352 17 56 3.2 4.8 0.00 0.00 0.00 71 1020.6
20260502190359 17 95 3.2 6.4 0.00 0.00 0.00 71 1020.5
20260502185353 17 115 3.2 8.0 0.00 0.00 0.00 71 1020.5
20260502184357 17 124 0.0 4.8 0.00 0.00 0.00 70 1020.6
20260502183356 17 124 6.4 9.7 0.00 0.00 0.00 70 1020.7
20260502182352 18 95 6.4 9.7 0.00 0.00 0.00 68 1020.4
20260502181355 18 109 3.2 8.0 0.00 0.00 0.00 67 1020.5
20260502180339 18 113 3.2 11.3 0.00 0.00 0.00 66 1020.4
20260502170350 18 93 1.6 9.7 0.00 0.00 0.00 62 1020.8
20260502164338 18 127 3.2 11.3 0.00 0.00 0.00 63 1021.2
20260502163357 18 98 6.4 12.9 0.00 0.00 0.00 63 1021.3
20260502162355 18 125 6.4 11.3 0.00 0.00 0.00 63 1021.3
20260502161356 18 114 4.8 14.5 0.00 0.00 0.00 62 1021.6
20260502160356 18 99 4.8 14.5 0.00 0.00 0.00 62 1021.6
20260502152338 19 119 6.4 16.1 0.00 0.00 0.00 60 1021.8
20260502151344 19 104 8.0 14.5 0.00 0.00 0.00 60 1021.8
20260502150347 19 32 4.8 11.3 0.00 0.00 0.00 62 1021.9
20260502130340 19 135 11.3 19.3 0.00 0.00 0.00 63 1023.0
20260502123345 20 112 8.0 20.9 0.00 0.00 0.00 55 1023.2
20260502122340 20 148 6.4 12.9 0.00 0.00 0.00 55 1023.0
20260502121347 20 61 6.4 14.5 0.00 0.00 0.00 55 1023.2
20260502120349 20 123 6.4 16.1 0.00 0.00 0.00 54 1023.2
20260502115347 21 123 6.4 17.7 0.00 0.00 0.00 53 1023.2
20260502113354 21 264 4.8 14.5 0.00 0.00 0.00 48 1023.2
20260502112355 21 114 4.8 14.5 0.00 0.00 0.00 45 1023.3
20260502111354 21 132 4.8 11.3 0.00 0.00 0.00 45 1023.3
20260502110340 21 109 8.0 12.9 0.00 0.00 0.00 43 1023.4
20260502105346 21 178 3.2 11.3 0.00 0.00 0.00 46 1023.6
20260502104356 21 129 3.2 9.7 0.00 0.00 0.00 47 1023.9
20260502103359 20 122 4.8 12.9 0.00 0.00 0.00 47 1023.9
20260502102353 20 137 3.2 8.0 0.00 0.00 0.00 50 1024.0
20260502101338 20 326 3.2 8.0 0.00 0.00 0.00 54 1024.0
20260502100340 20 147 1.6 11.3 0.00 0.00 0.00 55 1024.0
20260502091350 18 343 1.6 9.7 0.00 0.00 0.00 60 1024.4
20260502090341 18 358 4.8 6.4 0.00 0.00 0.00 61 1024.5
20260502071340 17 56 3.2 4.8 0.00 0.00 0.00 69 1024.6
20260502070346 17 56 1.6 4.8 0.00 0.00 0.00 70 1024.7
20260502065345 17 56 1.6 4.8 0.00 0.00 0.00 71 1024.7
20260502064345 16 55 1.6 6.4 0.00 0.00 0.00 71 1024.5
20260502063342 16 62 0.0 4.8 0.00 0.00 0.00 71 1024.5
20260502062357 16 62 1.6 6.4 0.00 0.00 0.00 71 1024.5
20260502061340 16 60 1.6 8.0 0.00 0.00 0.00 71 1024.5
20260502060343 16 58 4.8 9.7 0.00 0.00 0.00 71 1024.4
20260502055358 17 57 4.8 8.0 0.00 0.00 0.00 71 1024.3
20260502054357 17 34 1.6 8.0 0.00 0.00 0.00 71 1024.3
20260502053355 17 58 6.4 9.7 0.00 0.00 0.00 71 1024.2
20260502052354 17 39 4.8 8.0 0.00 0.00 0.00 71 1024.1
20260502051339 17 37 1.6 8.0 0.00 0.00 0.00 71 1024.1
20260502050343 17 44 3.2 8.0 0.00 0.00 0.00 71 1024.1
20260502045348 17 35 1.6 6.4 0.00 0.00 0.00 72 1024.1
20260502044353 17 37 0.0 9.7 0.00 0.00 0.00 72 1024.1
20260502043355 17 37 3.2 9.7 0.00 0.00 0.00 72 1024.0
20260502042351 17 21 6.4 9.7 0.00 0.00 0.00 73 1024.0
20260502041355 17 38 4.8 9.7 0.00 0.00 0.00 73 1023.9
20260502040338 17 10 6.4 9.7 0.00 0.00 0.00 74 1024.0
20260502035356 17 29 4.8 11.3 0.00 0.00 0.00 74 1024.0
20260502034336 17 28 6.4 11.3 0.00 0.00 0.00 73 1024.1
20260502033342 17 34 4.8 11.3 0.00 0.00 0.00 73 1023.9
20260502032358 17 54 4.8 8.0 0.00 0.00 0.00 72 1024.0
20260502031342 17 40 4.8 8.0 0.00 0.00 0.00 72 1024.1
20260502030340 17 41 3.2 8.0 0.00 0.00 0.00 72 1024.2
20260502025344 17 40 4.8 8.0 0.00 0.00 0.00 72 1024.4
20260502024342 17 40 1.6 6.4 0.00 0.00 0.00 72 1024.5
20260502023340 17 41 3.2 6.4 0.00 0.00 0.00 71 1024.4
20260502022355 17 42 3.2 6.4 0.00 0.00 0.00 71 1024.3
20260502021338 17 39 4.8 8.0 0.00 0.00 0.00 71 1024.3
20260502020340 16 55 3.2 9.7 0.00 0.00 0.00 70 1024.4
20260502015343 17 67 4.8 8.0 0.00 0.00 0.00 70 1024.4
20260502014355 17 44 3.2 8.0 0.00 0.00 0.00 70 1024.5
20260502013339 17 43 4.8 9.7 0.00 0.00 0.00 69 1024.3
20260502012357 17 48 6.4 9.7 0.00 0.00 0.00 69 1024.4
20260502011338 17 24 3.2 8.0 0.00 0.00 0.00 69 1024.6
20260502010355 17 42 1.6 6.4 0.00 0.00 0.00 68 1024.6